| time (UTC) | temp F | wind direction | speed MPH | gust MPH | rain 1hr in | rain 24hr in | rain mn in | humidity % | barometer mb |
| 20260906085007 | 57 | 238 | 0.0 | 0.0 | 0.00 | 0.01 | 0.00 | 89 | 1013.9 |
| 20260906084507 | 57 | 261 | 0.0 | 0.0 | 0.00 | 0.01 | 0.00 | 89 | 1013.9 |
| 20260906084007 | 57 | 261 | 0.0 | 0.0 | 0.00 | 0.01 | 0.00 | 89 | 1013.9 |
| 20260906083509 | 58 | 261 | 0.0 | 0.0 | 0.00 | 0.01 | 0.00 | 89 | 1013.9 |
| 20260906083009 | 58 | 261 | 0.0 | 0.0 | 0.00 | 0.01 | 0.00 | 89 | 1013.8 |
| 20260906082508 | 58 | 261 | 0.0 | 0.0 | 0.00 | 0.01 | 0.00 | 89 | 1013.8 |
| 20260906082013 | 58 | 261 | 0.0 | 0.0 | 0.00 | 0.01 | 0.00 | 88 | 1013.9 |
| 20260906082008 | 58 | 261 | 0.0 | 0.0 | 0.00 | 0.01 | 0.00 | 89 | 1013.8 |
| 20260906081507 | 58 | 261 | 0.0 | 0.0 | 0.00 | 0.01 | 0.00 | 88 | 1013.9 |
| 20260906081005 | 58 | 261 | 0.0 | 0.0 | 0.00 | 0.01 | 0.00 | 88 | 1013.9 |
| 20260906080005 | 58 | 261 | 0.0 | 0.0 | 0.00 | 0.01 | 0.00 | 88 | 1013.9 |
| 20260906075505 | 58 | 261 | 0.0 | 0.0 | 0.00 | 0.01 | 0.00 | 87 | 1013.9 |
| 20260906075011 | 58 | 261 | 0.0 | 0.0 | 0.00 | 0.01 | 0.00 | 87 | 1014.0 |
| 20260906075005 | 58 | 261 | 0.0 | 0.0 | 0.00 | 0.01 | 0.00 | 87 | 1014.0 |
| 20260906074005 | 58 | 261 | 0.0 | 0.0 | 0.00 | 0.01 | 0.00 | 86 | 1014.0 |
| 20260906073505 | 59 | 261 | 0.0 | 1.0 | 0.00 | 0.01 | 0.00 | 86 | 1014.0 |
| 20260906073005 | 59 | 261 | 0.0 | 1.0 | 0.00 | 0.01 | 0.00 | 86 | 1014.0 |
| 20260906072505 | 59 | 266 | 0.0 | 1.0 | 0.00 | 0.01 | 0.00 | 86 | 1014.1 |
| 20260906072006 | 59 | 256 | 0.0 | 1.0 | 0.00 | 0.01 | 0.00 | 86 | 1014.1 |
| 20260906071507 | 59 | 263 | 0.0 | 1.0 | 0.00 | 0.01 | 0.00 | 86 | 1014.1 |
| 20260906071007 | 59 | 252 | 1.0 | 2.0 | 0.00 | 0.01 | 0.00 | 86 | 1014.0 |
| 20260906070507 | 59 | 268 | 1.0 | 2.0 | 0.00 | 0.01 | 0.00 | 86 | 1014.0 |
| 20260906070007 | 59 | 283 | 1.0 | 3.0 | 0.00 | 0.01 | 0.00 | 87 | 1014.0 |
| 20260906065505 | 59 | 251 | 1.0 | 3.0 | 0.00 | 0.01 | 0.01 | 87 | 1014.0 |
| 20260906065005 | 59 | 247 | 0.0 | 2.0 | 0.00 | 0.01 | 0.01 | 87 | 1014.0 |
| 20260906064505 | 59 | 285 | 0.0 | 2.0 | 0.00 | 0.01 | 0.01 | 87 | 1013.9 |
| 20260906064007 | 59 | 269 | 0.0 | 3.0 | 0.00 | 0.01 | 0.01 | 87 | 1014.0 |
| 20260906063506 | 59 | 247 | 0.0 | 3.0 | 0.00 | 0.01 | 0.01 | 87 | 1014.0 |
| 20260906063003 | 59 | 262 | 0.0 | 1.0 | 0.00 | 0.01 | 0.01 | 86 | 1014.0 |
| 20260906062504 | 59 | 254 | 0.0 | 2.0 | 0.00 | 0.01 | 0.01 | 86 | 1014.0 |
| 20260906062003 | 59 | 281 | 0.0 | 2.0 | 0.00 | 0.01 | 0.01 | 86 | 1014.0 |
| 20260906061505 | 59 | 259 | 0.0 | 2.0 | 0.00 | 0.01 | 0.01 | 86 | 1013.9 |
| 20260906061008 | 59 | 268 | 0.0 | 4.0 | 0.00 | 0.01 | 0.01 | 86 | 1014.1 |
| 20260906061003 | 59 | 276 | 0.0 | 2.0 | 0.00 | 0.01 | 0.01 | 86 | 1014.1 |
| 20260906060003 | 59 | 280 | 1.0 | 4.0 | 0.00 | 0.01 | 0.01 | 86 | 1014.2 |
| 20260906055504 | 59 | 271 | 0.0 | 3.0 | 0.00 | 0.01 | 0.01 | 86 | 1014.3 |
| 20260906055005 | 59 | 259 | 0.0 | 2.0 | 0.00 | 0.01 | 0.01 | 86 | 1014.3 |
| 20260906054502 | 59 | 202 | 0.0 | 2.0 | 0.00 | 0.01 | 0.01 | 86 | 1014.4 |
| 20260906054002 | 59 | 292 | 0.0 | 2.0 | 0.00 | 0.01 | 0.01 | 86 | 1014.3 |
| 20260906053501 | 59 | 232 | 1.0 | 3.0 | 0.00 | 0.01 | 0.01 | 85 | 1014.2 |
| 20260906053001 | 59 | 238 | 1.0 | 3.0 | 0.00 | 0.01 | 0.01 | 85 | 1014.2 |
| 20260906052501 | 59 | 278 | 0.0 | 3.0 | 0.00 | 0.01 | 0.01 | 85 | 1014.2 |
| 20260906052001 | 59 | 221 | 0.0 | 2.0 | 0.00 | 0.01 | 0.01 | 85 | 1014.2 |
| 20260906051502 | 59 | 274 | 0.0 | 4.0 | 0.00 | 0.01 | 0.01 | 85 | 1014.1 |
| 20260906051002 | 59 | 281 | 1.0 | 4.0 | 0.00 | 0.01 | 0.01 | 85 | 1014.3 |
| 20260906050501 | 60 | 255 | 2.0 | 5.0 | 0.00 | 0.01 | 0.01 | 84 | 1014.2 |
| 20260906050001 | 60 | 264 | 2.0 | 5.0 | 0.00 | 0.01 | 0.01 | 84 | 1014.2 |
| 20260906045502 | 60 | 259 | 2.0 | 4.0 | 0.00 | 0.01 | 0.01 | 84 | 1014.2 |
| 20260906044959 | 60 | 266 | 2.0 | 4.0 | 0.00 | 0.01 | 0.01 | 84 | 1014.2 |
| 20260906044500 | 60 | 270 | 1.0 | 6.0 | 0.00 | 0.01 | 0.01 | 84 | 1014.3 |
| 20260906043959 | 60 | 236 | 1.0 | 6.0 | 0.00 | 0.01 | 0.01 | 84 | 1014.3 |
| 20260906043500 | 60 | 287 | 2.0 | 6.0 | 0.00 | 0.01 | 0.01 | 83 | 1014.4 |
| 20260906043000 | 60 | 308 | 3.0 | 7.0 | 0.00 | 0.01 | 0.01 | 83 | 1014.5 |
| 20260906042459 | 60 | 277 | 2.0 | 7.0 | 0.00 | 0.01 | 0.01 | 83 | 1014.5 |
| 20260906042000 | 60 | 273 | 2.0 | 7.0 | 0.00 | 0.01 | 0.01 | 83 | 1014.4 |
| 20260906041500 | 60 | 258 | 2.0 | 7.0 | 0.00 | 0.01 | 0.01 | 83 | 1014.4 |
| 20260906041000 | 60 | 266 | 1.0 | 5.0 | 0.00 | 0.01 | 0.01 | 83 | 1014.5 |
| 20260906040459 | 60 | 273 | 1.0 | 4.0 | 0.00 | 0.01 | 0.01 | 83 | 1014.4 |
| 20260906040002 | 61 | 276 | 2.0 | 7.0 | 0.00 | 0.01 | 0.01 | 82 | 1014.4 |
| 20260906035958 | 60 | 265 | 2.0 | 5.0 | 0.00 | 0.01 | 0.01 | 82 | 1014.4 |
| 20260906034956 | 61 | 283 | 2.0 | 7.0 | 0.00 | 0.01 | 0.01 | 82 | 1014.4 |
| 20260906034502 | 61 | 307 | 2.0 | 5.0 | 0.00 | 0.01 | 0.01 | 81 | 1014.2 |
| 20260906034458 | 61 | 259 | 2.0 | 5.0 | 0.00 | 0.01 | 0.01 | 81 | 1014.3 |
| 20260906033457 | 61 | 264 | 1.0 | 5.0 | 0.00 | 0.01 | 0.01 | 81 | 1014.2 |
| 20260906032957 | 61 | 277 | 2.0 | 5.0 | 0.00 | 0.01 | 0.01 | 80 | 1014.2 |
| 20260906032500 | 62 | 300 | 1.0 | 5.0 | 0.00 | 0.01 | 0.01 | 80 | 1014.1 |
| 20260906032456 | 62 | 229 | 1.0 | 5.0 | 0.00 | 0.01 | 0.01 | 80 | 1014.1 |
| 20260906031457 | 62 | 250 | 2.0 | 6.0 | 0.00 | 0.01 | 0.01 | 79 | 1014.1 |
| 20260906031000 | 62 | 267 | 2.0 | 8.0 | 0.00 | 0.01 | 0.01 | 78 | 1014.1 |
| 20260906030955 | 62 | 265 | 2.0 | 8.0 | 0.00 | 0.01 | 0.01 | 79 | 1014.1 |
| 20260906025957 | 62 | 290 | 1.0 | 7.0 | 0.00 | 0.01 | 0.01 | 78 | 1014.1 |
| 20260906025459 | 63 | 258 | 1.0 | 6.0 | 0.00 | 0.01 | 0.01 | 77 | 1014.2 |
| 20260906025453 | 63 | 282 | 2.0 | 6.0 | 0.00 | 0.01 | 0.01 | 78 | 1014.2 |
| 20260906024452 | 63 | 262 | 1.0 | 6.0 | 0.00 | 0.01 | 0.01 | 76 | 1014.2 |
| 20260906023952 | 64 | 248 | 1.0 | 5.0 | 0.00 | 0.01 | 0.01 | 76 | 1014.2 |
| 20260906023459 | 64 | 316 | 2.0 | 8.0 | 0.00 | 0.01 | 0.01 | 75 | 1014.2 |
| 20260906023454 | 64 | 274 | 2.0 | 8.0 | 0.00 | 0.01 | 0.01 | 75 | 1014.2 |
| 20260906022452 | 65 | 261 | 3.0 | 6.0 | 0.00 | 0.01 | 0.01 | 74 | 1014.1 |
| 20260906021952 | 65 | 299 | 2.0 | 6.0 | 0.00 | 0.01 | 0.01 | 73 | 1014.1 |
| 20260906021456 | 65 | 288 | 2.0 | 5.0 | 0.00 | 0.01 | 0.01 | 71 | 1014.1 |
| 20260906021450 | 66 | 274 | 2.0 | 5.0 | 0.00 | 0.01 | 0.01 | 70 | 1014.0 |
| 20260906020450 | 66 | 310 | 2.0 | 6.0 | 0.00 | 0.01 | 0.01 | 69 | 1014.0 |
| 20260906015950 | 66 | 284 | 2.0 | 6.0 | 0.00 | 0.01 | 0.01 | 68 | 1014.1 |
| 20260906015448 | 67 | 297 | 1.0 | 5.0 | 0.00 | 0.01 | 0.01 | 67 | 1014.0 |
| 20260906014946 | 67 | 325 | 2.0 | 9.0 | 0.00 | 0.01 | 0.01 | 67 | 1014.1 |
| 20260906014448 | 67 | 22 | 3.0 | 9.0 | 0.00 | 0.01 | 0.01 | 67 | 1014.0 |
| 20260906013954 | 67 | 253 | 2.0 | 8.0 | 0.00 | 0.01 | 0.01 | 66 | 1014.1 |
| 20260906013948 | 67 | 302 | 2.0 | 8.0 | 0.00 | 0.01 | 0.01 | 66 | 1014.1 |
| 20260906012947 | 67 | 309 | 3.0 | 8.0 | 0.00 | 0.01 | 0.01 | 66 | 1014.1 |
| 20260906012449 | 67 | 274 | 3.0 | 7.0 | 0.00 | 0.01 | 0.01 | 66 | 1014.1 |
| 20260906011953 | 67 | 253 | 3.0 | 9.0 | 0.00 | 0.01 | 0.01 | 66 | 1014.2 |
| 20260906011948 | 67 | 274 | 3.0 | 9.0 | 0.00 | 0.01 | 0.01 | 66 | 1014.2 |
| 20260906010946 | 68 | 243 | 3.0 | 9.0 | 0.00 | 0.01 | 0.01 | 66 | 1014.2 |
| 20260906010445 | 68 | 272 | 2.0 | 6.0 | 0.00 | 0.01 | 0.01 | 65 | 1014.1 |
| 20260906005945 | 68 | 356 | 2.0 | 5.0 | 0.00 | 0.01 | 0.01 | 62 | 1014.0 |
| 20260906005445 | 69 | 336 | 2.0 | 6.0 | 0.00 | 0.01 | 0.01 | 61 | 1014.0 |
| 20260906004945 | 69 | 355 | 2.0 | 6.0 | 0.00 | 0.01 | 0.01 | 61 | 1014.1 |
| 20260906004446 | 69 | 10 | 2.0 | 5.0 | 0.00 | 0.01 | 0.01 | 60 | 1014.1 |
| 20260906003945 | 69 | 353 | 2.0 | 5.0 | 0.00 | 0.01 | 0.01 | 60 | 1014.1 |
| 20260906003446 | 69 | 279 | 2.0 | 6.0 | 0.00 | 0.01 | 0.01 | 60 | 1014.0 |
| 20260906002945 | 70 | 294 | 3.0 | 8.0 | 0.00 | 0.01 | 0.01 | 59 | 1014.1 |
| 20260906002446 | 70 | 257 | 3.0 | 8.0 | 0.00 | 0.01 | 0.01 | 58 | 1014.0 |
| 20260906001945 | 70 | 340 | 3.0 | 8.0 | 0.00 | 0.01 | 0.01 | 57 | 1013.9 |
| 20260906001445 | 70 | 1 | 2.0 | 6.0 | 0.00 | 0.01 | 0.01 | 56 | 1014.0 |
| 20260906000944 | 71 | 340 | 2.0 | 5.0 | 0.00 | 0.01 | 0.01 | 55 | 1014.0 |
| 20260906000451 | 71 | 352 | 1.0 | 4.0 | 0.00 | 0.01 | 0.01 | 55 | 1014.0 |
| 20260906000447 | 71 | 333 | 1.0 | 4.0 | 0.00 | 0.01 | 0.01 | 55 | 1013.9 |
| 20260905235449 | 71 | 335 | 1.0 | 5.0 | 0.00 | 0.01 | 0.01 | 56 | 1014.0 |
| 20260905235444 | 71 | 307 | 1.0 | 5.0 | 0.00 | 0.01 | 0.01 | 56 | 1014.0 |
| 20260905234449 | 70 | 271 | 1.0 | 4.0 | 0.00 | 0.01 | 0.01 | 55 | 1014.0 |
| 20260905234444 | 70 | 299 | 1.0 | 4.0 | 0.00 | 0.01 | 0.01 | 55 | 1014.0 |
| 20260905234103 | 70 | 217 | 2.0 | 7.0 | 0.00 | 0.01 | 0.01 | 56 | 1014.0 |
| 20260905232951 | 71 | 263 | 2.0 | 6.0 | 0.00 | 0.01 | 0.01 | 55 | 1014.2 |
| 20260905232945 | 70 | 311 | 3.0 | 7.0 | 0.00 | 0.01 | 0.01 | 55 | 1014.1 |
| 20260905231946 | 71 | 273 | 2.0 | 6.0 | 0.00 | 0.01 | 0.01 | 55 | 1014.2 |
| 20260905231446 | 71 | 261 | 1.0 | 6.0 | 0.00 | 0.01 | 0.01 | 56 | 1014.2 |
| 20260905230942 | 71 | 289 | 1.0 | 5.0 | 0.00 | 0.01 | 0.01 | 57 | 1014.1 |
| 20260905230440 | 70 | 264 | 1.0 | 5.0 | 0.00 | 0.01 | 0.01 | 57 | 1014.2 |
| 20260905225942 | 70 | 309 | 1.0 | 5.0 | 0.00 | 0.01 | 0.01 | 59 | 1014.3 |
| 20260905225440 | 70 | 307 | 1.0 | 5.0 | 0.00 | 0.01 | 0.01 | 58 | 1014.4 |
| 20260905224941 | 70 | 307 | 1.0 | 5.0 | 0.00 | 0.01 | 0.01 | 59 | 1014.4 |
| 20260905224440 | 69 | 276 | 2.0 | 8.0 | 0.00 | 0.01 | 0.01 | 59 | 1014.4 |
| 20260905223939 | 69 | 339 | 2.0 | 8.0 | 0.00 | 0.01 | 0.01 | 60 | 1014.5 |
| 20260905223438 | 69 | 357 | 2.0 | 6.0 | 0.00 | 0.01 | 0.01 | 62 | 1014.5 |
| 20260905222940 | 68 | 332 | 2.0 | 6.0 | 0.00 | 0.01 | 0.01 | 62 | 1014.6 |
| 20260905222436 | 69 | 3 | 2.0 | 6.0 | 0.00 | 0.01 | 0.01 | 61 | 1014.6 |
| 20260905221938 | 69 | 75 | 2.0 | 7.0 | 0.00 | 0.01 | 0.01 | 62 | 1014.7 |
| 20260905221438 | 69 | 62 | 3.0 | 7.0 | 0.00 | 0.01 | 0.01 | 60 | 1014.7 |
| 20260905220935 | 69 | 347 | 3.0 | 8.0 | 0.00 | 0.02 | 0.01 | 59 | 1014.8 |
| 20260905220436 | 69 | 47 | 2.0 | 8.0 | 0.00 | 0.03 | 0.01 | 59 | 1014.8 |
| 20260905215935 | 70 | 349 | 1.0 | 6.0 | 0.00 | 0.03 | 0.01 | 59 | 1014.8 |
| 20260905215432 | 70 | 325 | 1.0 | 5.0 | 0.00 | 0.03 | 0.01 | 58 | 1014.8 |
| 20260905214934 | 70 | 47 | 1.0 | 6.0 | 0.00 | 0.04 | 0.01 | 60 | 1014.9 |
| 20260905214433 | 69 | 72 | 2.0 | 6.0 | 0.00 | 0.04 | 0.01 | 60 | 1014.9 |
| 20260905213932 | 69 | 29 | 3.0 | 6.0 | 0.00 | 0.04 | 0.01 | 61 | 1014.9 |
| 20260905213432 | 69 | 338 | 3.0 | 7.0 | 0.00 | 0.05 | 0.01 | 60 | 1014.9 |
| 20260905212933 | 70 | 4 | 2.0 | 7.0 | 0.00 | 0.05 | 0.01 | 60 | 1015.0 |
| 20260905212434 | 69 | 248 | 2.0 | 6.0 | 0.00 | 0.06 | 0.01 | 60 | 1015.0 |
| 20260905211933 | 70 | 311 | 2.0 | 6.0 | 0.00 | 0.06 | 0.01 | 61 | 1015.1 |
| 20260905211433 | 70 | 219 | 1.0 | 5.0 | 0.00 | 0.07 | 0.01 | 58 | 1015.1 |
| 20260905210934 | 69 | 176 | 1.0 | 4.0 | 0.00 | 0.08 | 0.01 | 60 | 1015.1 |
| 20260905210432 | 69 | 319 | 2.0 | 5.0 | 0.00 | 0.08 | 0.01 | 59 | 1015.2 |
| 20260905205932 | 68 | 143 | 2.0 | 5.0 | 0.00 | 0.08 | 0.01 | 60 | 1015.2 |
| 20260905205434 | 68 | 265 | 1.0 | 5.0 | 0.00 | 0.08 | 0.01 | 62 | 1015.2 |
| 20260905204937 | 67 | 27 | 1.0 | 5.0 | 0.00 | 0.08 | 0.01 | 63 | 1015.3 |
| 20260905204932 | 68 | 22 | 1.0 | 5.0 | 0.00 | 0.08 | 0.01 | 63 | 1015.3 |
| 20260905203930 | 67 | 140 | 1.0 | 3.0 | 0.00 | 0.08 | 0.01 | 64 | 1015.3 |
| 20260905203429 | 67 | 51 | 1.0 | 3.0 | 0.00 | 0.08 | 0.01 | 64 | 1015.4 |
| 20260905202928 | 67 | 147 | 0.0 | 3.0 | 0.00 | 0.08 | 0.01 | 64 | 1015.5 |
| 20260905202429 | 67 | 193 | 1.0 | 3.0 | 0.00 | 0.08 | 0.01 | 66 | 1015.5 |
| 20260905201928 | 66 | 133 | 1.0 | 3.0 | 0.00 | 0.08 | 0.01 | 66 | 1015.5 |
| 20260905201429 | 66 | 117 | 0.0 | 2.0 | 0.00 | 0.08 | 0.01 | 68 | 1015.5 |
| 20260905200929 | 65 | 309 | 0.0 | 3.0 | 0.00 | 0.08 | 0.01 | 68 | 1015.5 |
| 20260905200429 | 65 | 80 | 1.0 | 4.0 | 0.00 | 0.08 | 0.01 | 67 | 1015.6 |
| 20260905195930 | 65 | 93 | 1.0 | 4.0 | 0.00 | 0.08 | 0.01 | 67 | 1015.6 |
| 20260905195926 | 65 | 282 | 2.0 | 5.0 | 0.00 | 0.08 | 0.01 | 69 | 1015.6 |
| 20260905194927 | 65 | 292 | 2.0 | 5.0 | 0.00 | 0.08 | 0.01 | 68 | 1015.7 |
| 20260905194426 | 65 | 257 | 1.0 | 5.0 | 0.00 | 0.08 | 0.01 | 69 | 1015.8 |
| 20260905193926 | 65 | 301 | 1.0 | 4.0 | 0.00 | 0.08 | 0.01 | 70 | 1015.8 |
| 20260905193427 | 65 | 309 | 1.0 | 3.0 | 0.00 | 0.08 | 0.01 | 69 | 1015.8 |
| 20260905192926 | 65 | 310 | 1.0 | 3.0 | 0.00 | 0.08 | 0.01 | 71 | 1015.9 |
| 20260905192427 | 65 | 274 | 1.0 | 3.0 | 0.00 | 0.08 | 0.01 | 73 | 1015.9 |
| 20260905191926 | 65 | 264 | 1.0 | 6.0 | 0.00 | 0.08 | 0.01 | 71 | 1016.0 |
| 20260905191433 | 63 | 307 | 1.0 | 3.0 | 0.00 | 0.09 | 0.01 | 75 | 1016.1 |
| 20260905191427 | 64 | 323 | 2.0 | 6.0 | 0.00 | 0.08 | 0.01 | 73 | 1016.0 |
| 20260905190926 | 64 | 304 | 1.0 | 5.0 | 0.00 | 0.08 | 0.01 | 75 | 1016.0 |
| 20260905190424 | 63 | 17 | 1.0 | 5.0 | 0.00 | 0.09 | 0.01 | 75 | 1016.0 |
| 20260905190045 | 63 | 319 | 0.0 | 2.0 | 0.00 | 0.09 | 0.01 | 76 | 1016.1 |
| 20260905184925 | 63 | 241 | 0.0 | 2.0 | 0.00 | 0.09 | 0.01 | 76 | 1016.1 |
| 20260905184425 | 63 | 237 | 0.0 | 4.0 | 0.00 | 0.09 | 0.01 | 76 | 1016.1 |
| 20260905183925 | 62 | 161 | 2.0 | 5.0 | 0.00 | 0.09 | 0.01 | 77 | 1016.1 |
| 20260905183425 | 62 | 297 | 2.0 | 5.0 | 0.00 | 0.09 | 0.01 | 78 | 1016.1 |
| 20260905182932 | 62 | 269 | 1.0 | 4.0 | 0.00 | 0.10 | 0.01 | 79 | 1016.1 |
| 20260905182925 | 62 | 3 | 1.0 | 4.0 | 0.00 | 0.09 | 0.01 | 78 | 1016.1 |
| 20260905182426 | 62 | 302 | 1.0 | 4.0 | 0.00 | 0.09 | 0.01 | 79 | 1016.1 |
| 20260905181923 | 62 | 276 | 0.0 | 3.0 | 0.00 | 0.10 | 0.01 | 76 | 1016.1 |
| 20260905180922 | 62 | 313 | 1.0 | 3.0 | 0.00 | 0.10 | 0.01 | 77 | 1016.1 |
| 20260905180420 | 62 | 229 | 1.0 | 3.0 | 0.00 | 0.10 | 0.01 | 76 | 1016.1 |
| 20260905175922 | 62 | 255 | 1.0 | 3.0 | 0.00 | 0.10 | 0.01 | 79 | 1016.0 |
| 20260905175425 | 62 | 145 | 0.0 | 1.0 | 0.00 | 0.10 | 0.01 | 78 | 1016.2 |
| 20260905175420 | 62 | 279 | 1.0 | 3.0 | 0.00 | 0.10 | 0.01 | 79 | 1016.1 |
| 20260905175041 | 62 | 191 | 0.0 | 0.0 | 0.00 | 0.10 | 0.01 | 78 | 1016.1 |
| 20260905174538 | 61 | 149 | 0.0 | 2.0 | 0.00 | 0.10 | 0.01 | 81 | 1016.1 |
| 20260905173420 | 61 | 163 | 0.0 | 2.0 | 0.00 | 0.10 | 0.01 | 80 | 1016.2 |
| 20260905172919 | 61 | 143 | 0.0 | 1.0 | 0.00 | 0.10 | 0.01 | 80 | 1016.2 |
| 20260905172418 | 60 | 136 | 0.0 | 1.0 | 0.00 | 0.10 | 0.01 | 81 | 1016.2 |
| 20260905171919 | 60 | 124 | 0.0 | 1.0 | 0.00 | 0.10 | 0.01 | 82 | 1016.2 |
| 20260905171419 | 60 | 192 | 0.0 | 0.0 | 0.00 | 0.10 | 0.01 | 81 | 1016.2 |
| 20260905170916 | 60 | 195 | 0.0 | 1.0 | 0.00 | 0.10 | 0.01 | 81 | 1016.2 |
| 20260905170418 | 60 | 195 | 0.0 | 1.0 | 0.00 | 0.10 | 0.01 | 82 | 1016.2 |
| 20260905165916 | 60 | 146 | 0.0 | 1.0 | 0.00 | 0.10 | 0.01 | 84 | 1016.2 |
| 20260905165417 | 60 | 146 | 0.0 | 1.0 | 0.00 | 0.10 | 0.01 | 83 | 1016.2 |
| 20260905164916 | 59 | 136 | 0.0 | 1.0 | 0.00 | 0.10 | 0.01 | 84 | 1016.2 |
| 20260905164414 | 59 | 141 | 0.0 | 2.0 | 0.00 | 0.10 | 0.01 | 84 | 1016.2 |
| 20260905163913 | 59 | 141 | 0.0 | 2.0 | 0.00 | 0.10 | 0.01 | 84 | 1016.2 |
| 20260905163415 | 59 | 134 | 0.0 | 0.0 | 0.00 | 0.10 | 0.01 | 85 | 1016.2 |
| 20260905162920 | 58 | 195 | 0.0 | 0.0 | 0.00 | 0.10 | 0.01 | 85 | 1016.2 |
| 20260905162914 | 59 | 186 | 0.0 | 0.0 | 0.00 | 0.10 | 0.01 | 85 | 1016.2 |
| 20260905161920 | 58 | 195 | 0.0 | 2.0 | 0.00 | 0.10 | 0.01 | 85 | 1016.3 |
| 20260905161916 | 58 | 195 | 0.0 | 0.0 | 0.00 | 0.10 | 0.01 | 85 | 1016.3 |
| 20260905160914 | 58 | 196 | 0.0 | 2.0 | 0.00 | 0.10 | 0.01 | 86 | 1016.3 |
| 20260905160413 | 58 | 136 | 0.0 | 2.0 | 0.00 | 0.10 | 0.01 | 87 | 1016.3 |
| 20260905155913 | 58 | 150 | 1.0 | 2.0 | 0.00 | 0.10 | 0.01 | 86 | 1016.3 |
| 20260905155413 | 58 | 134 | 0.0 | 2.0 | 0.00 | 0.10 | 0.01 | 87 | 1016.3 |
| 20260905154917 | 57 | 145 | 0.0 | 3.0 | 0.00 | 0.10 | 0.01 | 87 | 1016.2 |
| 20260905154912 | 58 | 146 | 0.0 | 3.0 | 0.00 | 0.10 | 0.01 | 87 | 1016.3 |
| 20260905153912 | 57 | 143 | 0.0 | 3.0 | 0.00 | 0.10 | 0.01 | 87 | 1016.2 |
| 20260905153413 | 57 | 147 | 0.0 | 2.0 | 0.00 | 0.10 | 0.01 | 88 | 1016.2 |
| 20260905152912 | 57 | 148 | 0.0 | 2.0 | 0.00 | 0.10 | 0.01 | 88 | 1016.2 |
| 20260905152412 | 57 | 140 | 0.0 | 1.0 | 0.00 | 0.10 | 0.01 | 88 | 1016.2 |
| 20260905151911 | 57 | 141 | 0.0 | 1.0 | 0.00 | 0.10 | 0.01 | 89 | 1016.1 |
| 20260905151411 | 57 | 136 | 0.0 | 1.0 | 0.00 | 0.10 | 0.01 | 89 | 1016.2 |
| 20260905150915 | 57 | 136 | 0.0 | 1.0 | 0.00 | 0.11 | 0.01 | 90 | 1016.2 |
| 20260905150910 | 57 | 136 | 0.0 | 1.0 | 0.00 | 0.11 | 0.01 | 89 | 1016.1 |
| 20260905145910 | 57 | 136 | 0.0 | 1.0 | 0.00 | 0.12 | 0.01 | 90 | 1016.2 |
| 20260905145411 | 56 | 135 | 0.0 | 1.0 | 0.00 | 0.12 | 0.01 | 90 | 1016.1 |
| 20260905144910 | 56 | 139 | 0.0 | 1.0 | 0.00 | 0.12 | 0.01 | 91 | 1016.1 |
| 20260905144410 | 56 | 160 | 0.0 | 0.0 | 0.00 | 0.12 | 0.01 | 91 | 1016.1 |
| 20260905143911 | 56 | 160 | 0.0 | 0.0 | 0.00 | 0.12 | 0.01 | 92 | 1016.1 |
| 20260905143416 | 57 | 183 | 0.0 | 0.0 | 0.00 | 0.12 | 0.01 | 92 | 1016.1 |
| 20260905143412 | 56 | 172 | 0.0 | 0.0 | 0.00 | 0.12 | 0.01 | 92 | 1016.1 |
| 20260905143031 | 57 | 183 | 0.0 | 0.0 | 0.00 | 0.12 | 0.01 | 93 | 1016.1 |
| 20260905141911 | 57 | 183 | 0.0 | 0.0 | 0.00 | 0.12 | 0.01 | 94 | 1016.1 |
| 20260905141410 | 57 | 183 | 0.0 | 0.0 | 0.00 | 0.12 | 0.01 | 94 | 1016.0 |
| 20260905140911 | 56 | 183 | 0.0 | 0.0 | 0.00 | 0.12 | 0.01 | 94 | 1016.0 |
| 20260905140416 | 55 | 184 | 0.0 | 0.0 | 0.00 | 0.12 | 0.01 | 94 | 1016.1 |
| 20260905140411 | 56 | 184 | 0.0 | 0.0 | 0.00 | 0.12 | 0.01 | 94 | 1016.0 |
| 20260905135417 | 55 | 184 | 0.0 | 0.0 | 0.00 | 0.13 | 0.01 | 93 | 1016.0 |
| 20260905135411 | 55 | 184 | 0.0 | 0.0 | 0.00 | 0.13 | 0.01 | 94 | 1016.0 |
| 20260905134410 | 55 | 184 | 0.0 | 0.0 | 0.00 | 0.13 | 0.01 | 93 | 1016.0 |
| 20260905133910 | 55 | 184 | 0.0 | 0.0 | 0.00 | 0.13 | 0.01 | 93 | 1016.0 |
| 20260905133414 | 55 | 185 | 0.0 | 0.0 | 0.00 | 0.13 | 0.01 | 93 | 1015.9 |
| 20260905133410 | 55 | 185 | 0.0 | 0.0 | 0.00 | 0.13 | 0.01 | 93 | 1016.0 |
| 20260905132411 | 55 | 185 | 0.0 | 0.0 | 0.00 | 0.13 | 0.01 | 93 | 1015.9 |
| 20260905131909 | 55 | 139 | 0.0 | 0.0 | 0.00 | 0.13 | 0.01 | 93 | 1015.9 |
| 20260905131408 | 56 | 132 | 0.0 | 0.0 | 0.00 | 0.13 | 0.01 | 93 | 1015.9 |
| 20260905130909 | 56 | 132 | 0.0 | 0.0 | 0.00 | 0.13 | 0.01 | 93 | 1015.8 |
| 20260905130410 | 56 | 132 | 0.0 | 0.0 | 0.01 | 0.13 | 0.01 | 93 | 1015.8 |
| 20260905125907 | 56 | 132 | 0.0 | 0.0 | 0.01 | 0.13 | 0.01 | 93 | 1015.7 |
| 20260905125409 | 55 | 132 | 0.0 | 0.0 | 0.01 | 0.13 | 0.01 | 93 | 1015.7 |
| 20260905124909 | 56 | 132 | 0.0 | 0.0 | 0.01 | 0.13 | 0.01 | 93 | 1015.7 |
| 20260905124414 | 56 | 132 | 0.0 | 0.0 | 0.01 | 0.13 | 0.01 | 93 | 1015.5 |
| 20260905124408 | 56 | 132 | 0.0 | 0.0 | 0.01 | 0.13 | 0.01 | 93 | 1015.7 |
| 20260905123408 | 56 | 132 | 0.0 | 0.0 | 0.01 | 0.13 | 0.01 | 93 | 1015.6 |
| 20260905122908 | 56 | 132 | 0.0 | 0.0 | 0.01 | 0.13 | 0.01 | 93 | 1015.6 |
| 20260905122409 | 56 | 132 | 0.0 | 0.0 | 0.01 | 0.13 | 0.01 | 92 | 1015.5 |
| 20260905121908 | 56 | 132 | 0.0 | 0.0 | 0.01 | 0.13 | 0.01 | 93 | 1015.5 |
| 20260905121412 | 56 | 132 | 0.0 | 0.0 | 0.01 | 0.13 | 0.01 | 93 | 1015.5 |
| 20260905121407 | 56 | 132 | 0.0 | 0.0 | 0.01 | 0.13 | 0.01 | 93 | 1015.5 |
| 20260905120408 | 56 | 132 | 0.0 | 0.0 | 0.00 | 0.12 | 0.00 | 93 | 1015.5 |
| 20260905115914 | 56 | 132 | 0.0 | 0.0 | 0.00 | 0.12 | 0.00 | 93 | 1015.5 |
| 20260905115909 | 56 | 132 | 0.0 | 0.0 | 0.00 | 0.12 | 0.00 | 93 | 1015.4 |
| 20260905114906 | 56 | 132 | 0.0 | 0.0 | 0.00 | 0.12 | 0.00 | 93 | 1015.6 |
| 20260905114406 | 56 | 132 | 0.0 | 0.0 | 0.00 | 0.12 | 0.00 | 93 | 1015.6 |
| 20260905113907 | 56 | 132 | 0.0 | 0.0 | 0.00 | 0.12 | 0.00 | 93 | 1015.5 |
| 20260905113902 | 56 | 132 | 0.0 | 0.0 | 0.00 | 0.12 | 0.00 | 93 | 1015.5 |
| 20260905113520 | 56 | 127 | 0.0 | 0.0 | 0.00 | 0.12 | 0.00 | 93 | 1015.5 |
| 20260905112402 | 56 | 127 | 0.0 | 0.0 | 0.00 | 0.12 | 0.00 | 93 | 1015.4 |
| 20260905111902 | 56 | 127 | 0.0 | 0.0 | 0.00 | 0.12 | 0.00 | 92 | 1015.4 |
| 20260905111403 | 56 | 127 | 0.0 | 0.0 | 0.00 | 0.12 | 0.00 | 92 | 1015.4 |
| 20260905110908 | 56 | 127 | 0.0 | 0.0 | 0.00 | 0.12 | 0.00 | 93 | 1015.5 |
| 20260905110903 | 56 | 127 | 0.0 | 0.0 | 0.00 | 0.12 | 0.00 | 93 | 1015.4 |
| 20260905105902 | 56 | 127 | 0.0 | 0.0 | 0.00 | 0.12 | 0.00 | 93 | 1015.5 |
| 20260905105406 | 56 | 127 | 0.0 | 0.0 | 0.00 | 0.12 | 0.00 | 93 | 1015.5 |
| 20260905105402 | 56 | 127 | 0.0 | 0.0 | 0.00 | 0.12 | 0.00 | 93 | 1015.4 |
| 20260905104401 | 56 | 127 | 0.0 | 1.0 | 0.00 | 0.13 | 0.00 | 93 | 1015.5 |
| 20260905103900 | 56 | 127 | 0.0 | 1.0 | 0.00 | 0.13 | 0.00 | 93 | 1015.5 |
| 20260905103400 | 56 | 127 | 0.0 | 0.0 | 0.00 | 0.13 | 0.00 | 93 | 1015.5 |
| 20260905102905 | 56 | 127 | 0.0 | 0.0 | 0.00 | 0.14 | 0.00 | 93 | 1015.5 |
| 20260905102900 | 56 | 127 | 0.0 | 0.0 | 0.00 | 0.14 | 0.00 | 93 | 1015.5 |
| 20260905101859 | 56 | 127 | 0.0 | 0.0 | 0.00 | 0.14 | 0.00 | 93 | 1015.6 |
| 20260905101406 | 56 | 110 | 0.0 | 0.0 | 0.00 | 0.16 | 0.00 | 93 | 1015.4 |
| 20260905101359 | 56 | 127 | 0.0 | 0.0 | 0.00 | 0.15 | 0.00 | 93 | 1015.5 |
| 20260905100859 | 56 | 127 | 0.0 | 0.0 | 0.00 | 0.15 | 0.00 | 93 | 1015.5 |
| 20260905095904 | 55 | 110 | 0.0 | 0.0 | 0.00 | 0.17 | 0.00 | 93 | 1015.4 |
| 20260905095858 | 56 | 110 | 0.0 | 0.0 | 0.00 | 0.16 | 0.00 | 93 | 1015.4 |
| 20260905095515 | 55 | 110 | 0.0 | 0.0 | 0.00 | 0.17 | 0.00 | 93 | 1015.4 |
| 20260905094357 | 55 | 109 | 0.0 | 0.0 | 0.00 | 0.17 | 0.00 | 92 | 1015.4 |
| 20260905093858 | 55 | 110 | 0.0 | 0.0 | 0.00 | 0.17 | 0.00 | 92 | 1015.4 |
| 20260905093402 | 55 | 110 | 0.0 | 0.0 | 0.00 | 0.17 | 0.00 | 92 | 1015.5 |
| 20260905093356 | 55 | 110 | 0.0 | 0.0 | 0.00 | 0.17 | 0.00 | 92 | 1015.4 |
| 20260905092357 | 55 | 110 | 0.0 | 0.0 | 0.00 | 0.17 | 0.00 | 92 | 1015.4 |
| 20260905091857 | 55 | 110 | 0.0 | 0.0 | 0.00 | 0.17 | 0.00 | 92 | 1015.4 |
| 20260905091359 | 55 | 110 | 0.0 | 0.0 | 0.00 | 0.18 | 0.00 | 92 | 1015.4 |
| 20260905090858 | 55 | 109 | 0.0 | 0.0 | 0.00 | 0.18 | 0.00 | 92 | 1015.4 |
| 20260905090401 | 55 | 110 | 0.0 | 0.0 | 0.00 | 0.20 | 0.00 | 91 | 1015.3 |
| 20260905090356 | 55 | 109 | 0.0 | 0.0 | 0.00 | 0.19 | 0.00 | 92 | 1015.3 |
| 20260905085355 | 56 | 110 | 0.0 | 0.0 | 0.00 | 0.21 | 0.00 | 91 | 1015.3 |